Farmington, MO

2:06 AM CDT on October 15, 2019 (GMT -0500)
Farmington Regional

Weather History for KFAM - July, 2019

Change the Weather History Date:

Friday, July 26, 2019

  Actual Average Record
Temperature  
Mean Temperature 72 °F -  
Max Temperature 84 °F 83 °F 98 °F (1999)
Min Temperature 63 °F 65 °F 55 °F (1996)
Cooling Degree Days 8    
Growing Degree Days 22 (Base 50)    
Moisture  
Dew Point 64 °F    
Average Humidity 74    
Maximum Humidity 100    
Minimum Humidity 49    
Precipitation  
Precipitation 0.00 in - - ()
Sea Level Pressure  
Sea Level Pressure 30.23 in    
Wind  
Wind Speed 2 mph (South)    
Max Wind Speed 8 mph    
Max Gust Speed -    
Visibility 10 miles    
Events      
Averages and records for this station are not official NWS values.
T = Trace of Precipitation, MM = Missing Value Source: NWS Daily Summary

Daily Weather History Graph

Daily Weather History Graph

Search for Another Location

Airport or City:

Astronomy

Jul. 26, 2019 Rise Set
Actual Time 6:00 AM CDT 8:15 PM CDT
Civil Twilight 5:30 AM CDT 8:45 PM CDT
Nautical Twilight 4:54 AM CDT 9:21 PM CDT
Astronomical Twilight 4:14 AM CDT 10:01 PM CDT
Moon 1:10 AM CDT (7/26) 3:02 PM CDT (7/26)
Length of Visible Light 15h 14m
Length of Day
14h 15m
Waning Crescent, 34% of the Moon is Illuminated
Jul 26
Waning Crescent
Jul 31
New
Aug 7
First Quarter
Aug 15
Full
Aug 23
Last Quarter

Hourly Weather History & Observations

Time (CDT) Temp. Heat Index Dew Point Humidity Pressure Visibility Wind Dir Wind Speed Gust Speed Precip Events Conditions
12:56 AM 68.0 °F - 64.0 °F 87% 30.21 in 10.0 mi Calm Calm - N/A   Clear
1:56 AM 66.0 °F - 63.0 °F 90% 30.21 in 10.0 mi Calm Calm - N/A   Clear
2:56 AM 64.9 °F - 63.0 °F 93% 30.21 in 10.0 mi Calm Calm - N/A   Clear
3:56 AM 64.0 °F - 63.0 °F 96% 30.21 in 9.0 mi Calm Calm - N/A   Clear
4:56 AM 63.0 °F - 63.0 °F 100% 30.22 in 8.0 mi Calm Calm - N/A   Clear
5:56 AM 63.0 °F - 62.1 °F 97% 30.24 in 4.0 mi Calm Calm - N/A   Clear
6:56 AM 63.0 °F - 62.1 °F 97% 30.25 in 8.0 mi Calm Calm - N/A   Clear
7:56 AM 66.9 °F - 64.0 °F 90% 30.27 in 10.0 mi South 3.5 mph - N/A   Clear
8:56 AM 72.0 °F - 64.0 °F 76% 30.28 in 10.0 mi SSW 4.6 mph - N/A   Clear
9:56 AM 75.0 °F - 64.0 °F 69% 30.28 in 10.0 mi South 5.8 mph - N/A   Clear
10:56 AM 78.1 °F - 63.0 °F 60% 30.28 in 8.0 mi SSW 8.1 mph - N/A   Clear
11:56 AM 80.1 °F 81.1 °F 61.0 °F 52% 30.27 in 10.0 mi Variable 4.6 mph - N/A   Clear
12:56 PM 81.0 °F 82.2 °F 63.0 °F 54% 30.26 in 10.0 mi SE 5.8 mph - N/A   Partly Cloudy
1:56 PM 81.0 °F 81.9 °F 62.1 °F 52% 30.25 in 10.0 mi Calm Calm - N/A   Partly Cloudy
2:56 PM 82.9 °F 84.0 °F 63.0 °F 51% 30.24 in 10.0 mi SE 6.9 mph - N/A   Partly Cloudy
3:56 PM 82.9 °F 83.7 °F 62.1 °F 49% 30.22 in 10.0 mi South 8.1 mph - N/A   Partly Cloudy
4:56 PM 81.0 °F 81.9 °F 62.1 °F 52% 30.22 in 10.0 mi SSW 4.6 mph - N/A   Scattered Clouds
5:56 PM 82.9 °F 84.4 °F 64.0 °F 53% 30.20 in 10.0 mi Variable 5.8 mph - N/A   Partly Cloudy
6:56 PM 80.1 °F 81.7 °F 64.0 °F 58% 30.21 in 10.0 mi South 6.9 mph - N/A   Mostly Cloudy
7:05 PM 80.6 °F 82.3 °F 64.4 °F 58% 30.20 in 10.0 mi SSE 8.1 mph - N/A   Mostly Cloudy
7:56 PM 77.0 °F - 66.0 °F 69% 30.22 in 10.0 mi SSE 3.5 mph - N/A   Clear
8:56 PM 73.9 °F - 64.9 °F 73% 30.22 in 10.0 mi SSE 3.5 mph - N/A   Clear
9:56 PM 70.0 °F - 66.0 °F 87% 30.23 in 10.0 mi Calm Calm - N/A   Clear
10:56 PM 69.1 °F - 66.0 °F 90% 30.23 in 10.0 mi Calm Calm - N/A   Clear
11:56 PM 66.0 °F - 64.0 °F 93% 30.24 in 10.0 mi Calm Calm - N/A   Clear